CW4610 Weather Reports


Display with metric or nautical units.
time (UTC)temp
F
wind
direction
speed
MPH
gust
MPH
rain 1hr
in
rain 24hr
in
rain mn
in
humidity
%
barometer
mb
20260509085019 53 113 3.0 5.0 0.00 0.00 0.00 87 1021.7
20260509084019 53 90 2.0 3.0 0.00 0.00 0.00 86 1021.8
20260509083020 53 113 2.0 4.0 0.00 0.00 0.00 86 1021.8
20260509082020 53 90 2.0 5.0 0.00 0.00 0.00 86 1021.7
20260509081020 53 113 2.0 5.0 0.00 0.00 0.00 86 1021.5
20260509080019 53 113 1.0 2.0 0.00 0.00 0.00 86 1021.5
20260509075039 53 90 2.0 5.0 0.00 0.00 0.00 85 1021.5
20260509074019 53 90 3.0 6.0 0.00 0.00 0.00 84 1021.5
20260509073019 53 90 2.0 5.0 0.00 0.00 0.00 84 1021.6
20260509072020 53 113 3.0 4.0 0.00 0.00 0.00 84 1021.6
20260509071020 53 113 3.0 5.0 0.00 0.00 0.00 83 1021.7
20260509070020 54 113 3.0 5.0 0.00 0.00 0.00 83 1021.6
20260509065019 54 113 3.0 4.0 0.00 0.00 0.00 82 1021.5
20260509064018 54 135 2.0 4.0 0.00 0.00 0.00 81 1021.5
20260509063019 54 90 3.0 6.0 0.00 0.00 0.00 81 1021.6
20260509062019 54 203 2.0 4.0 0.00 0.00 0.00 81 1021.6
20260509061018 54 180 1.0 3.0 0.00 0.00 0.00 81 1021.5
20260509060018 54 158 2.0 4.0 0.00 0.00 0.00 81 1021.5
20260509055019 54 203 3.0 5.0 0.00 0.00 0.00 81 1021.5
20260509054019 54 180 2.0 5.0 0.00 0.00 0.00 79 1021.4
20260509053019 55 90 1.0 5.0 0.00 0.00 0.00 79 1021.4
20260509052039 55 68 1.0 2.0 0.00 0.00 0.00 78 1021.4
20260509051018 55 113 2.0 4.0 0.00 0.00 0.00 77 1021.4
20260509050038 55 90 2.0 5.0 0.00 0.00 0.00 77 1021.3
20260509045039 55 135 3.0 5.0 0.00 0.00 0.00 77 1021.3
20260509044018 55 113 3.0 5.0 0.00 0.00 0.00 77 1021.2
20260509043018 55 68 3.0 5.0 0.00 0.00 0.00 76 1021.1
20260509042018 55 90 2.0 5.0 0.00 0.00 0.00 76 1021.0
20260509041018 55 135 2.0 3.0 0.00 0.00 0.00 75 1020.8
20260509040019 56 158 4.0 8.0 0.00 0.00 0.00 75 1020.8
20260509035038 56 180 5.0 8.0 0.00 0.00 0.00 74 1020.8
20260509034038 56 180 6.0 7.0 0.00 0.00 0.00 73 1020.7
20260509033019 56 180 5.0 7.0 0.00 0.00 0.00 73 1020.6
20260509032031 56 180 6.0 11.0 0.00 0.00 0.00 71 1020.5
20260509031028 57 180 8.0 14.0 0.00 0.00 0.00 71 1020.5
20260509030040 57 180 8.0 13.0 0.00 0.00 0.00 70 1020.4
20260509025018 57 180 8.0 14.0 0.00 0.00 0.00 68 1020.4
20260509024039 58 180 7.0 15.0 0.00 0.00 0.00 67 1020.4
20260509023018 58 135 6.0 11.0 0.00 0.00 0.00 67 1020.4
20260509022018 58 180 4.0 7.0 0.00 0.00 0.00 67 1020.5
20260509021028 58 158 6.0 11.0 0.00 0.00 0.00 67 1020.4
20260509020039 58 180 9.0 13.0 0.00 0.00 0.00 67 1020.3
20260509015019 58 180 9.0 16.0 0.00 0.00 0.00 66 1020.3
20260509014020 58 180 8.0 13.0 0.00 0.00 0.00 65 1020.3
20260509013020 58 158 8.0 13.0 0.00 0.00 0.00 65 1020.3
20260509012020 58 180 9.0 15.0 0.00 0.00 0.00 65 1020.3
20260509011020 58 180 9.0 15.0 0.00 0.00 0.00 64 1020.3
20260509010040 59 180 9.0 16.0 0.00 0.00 0.00 64 1020.3
20260509005020 59 158 8.0 13.0 0.00 0.00 0.00 63 1020.3
20260509004100 59 180 9.0 15.0 0.00 0.00 0.00 63 1020.3
20260509003039 60 180 11.0 17.0 0.00 0.00 0.00 61 1020.3
20260509002019 60 180 10.0 16.0 0.00 0.00 0.00 60 1020.3
20260509001021 61 158 9.0 15.0 0.00 0.00 0.00 58 1020.3
20260509000040 62 180 8.0 15.0 0.00 0.00 0.00 57 1020.3
20260508235140 62 180 8.0 14.0 0.00 0.00 0.00 58 1020.3
20260508234020 62 180 11.0 19.0 0.00 0.00 0.00 56 1020.1
20260508233133 61 180 8.0 12.0 0.00 0.00 0.00 57 1020.0
20260508232019 61 180 7.0 17.0 0.00 0.00 0.00 56 1020.0
20260508231039 62 180 9.0 17.0 0.00 0.00 0.00 57 1020.0
20260508230040 62 180 8.0 12.0 0.00 0.00 0.00 55 1019.8
20260508225039 62 158 10.0 16.0 0.00 0.00 0.00 53 1019.7
20260508224020 63 180 11.0 17.0 0.00 0.00 0.00 54 1019.7
20260508223045 62 180 10.0 13.0 0.00 0.00 0.00 55 1019.7
20260508222020 61 180 9.0 15.0 0.00 0.00 0.00 54 1019.7
20260508221020 62 158 9.0 16.0 0.00 0.00 0.00 53 1019.6
20260508220019 62 180 7.0 13.0 0.00 0.00 0.00 53 1019.6
20260508215020 63 180 8.0 13.0 0.00 0.00 0.00 54 1019.6
20260508214020 63 180 11.0 15.0 0.00 0.00 0.00 52 1019.3
20260508213020 64 135 9.0 15.0 0.00 0.00 0.00 51 1019.2
20260508212039 65 158 10.0 17.0 0.00 0.00 0.00 49 1019.2
20260508211020 65 180 9.0 14.0 0.00 0.00 0.00 51 1019.1
20260508210040 64 180 10.0 19.0 0.00 0.00 0.00 52 1019.2
20260508205031 63 180 10.0 16.0 0.00 0.00 0.00 53 1019.2
20260508204019 63 180 11.0 16.0 0.00 0.00 0.00 52 1019.1
20260508203020 62 180 8.0 13.0 0.00 0.00 0.00 55 1019.0
20260508202020 62 180 10.0 19.0 0.00 0.00 0.00 55 1019.0
20260508201040 63 180 11.0 18.0 0.00 0.00 0.00 54 1018.9
20260508200019 61 180 10.0 17.0 0.00 0.00 0.00 58 1018.8
20260508195020 60 180 9.0 16.0 0.00 0.00 0.00 59 1018.7
20260508194020 59 180 10.0 15.0 0.00 0.00 0.00 62 1018.7
20260508193019 58 180 10.0 17.0 0.00 0.00 0.00 63 1018.6
20260508192020 57 158 9.0 17.0 0.00 0.00 0.00 63 1018.5
20260508191019 57 158 9.0 14.0 0.00 0.00 0.00 63 1018.4
20260508190018 58 180 8.0 13.0 0.00 0.00 0.00 63 1018.2
20260508185021 58 158 9.0 16.0 0.00 0.00 0.00 63 1018.2
20260508184019 59 180 10.0 16.0 0.00 0.00 0.00 63 1018.2
20260508183019 58 180 10.0 17.0 0.00 0.00 0.00 65 1018.2
20260508182019 58 180 10.0 16.0 0.00 0.00 0.00 66 1018.2
20260508181037 57 180 8.0 18.0 0.00 0.00 0.00 68 1018.2
20260508180020 57 180 10.0 17.0 0.00 0.00 0.00 69 1018.2
20260508175018 56 180 12.0 17.0 0.00 0.00 0.00 69 1018.2
20260508174019 55 180 10.0 17.0 0.00 0.00 0.00 72 1018.1
20260508173054 55 180 11.0 17.0 0.00 0.00 0.00 72 1018.0
20260508172020 55 180 11.0 17.0 0.00 0.00 0.00 73 1018.0
20260508171046 55 180 12.0 18.0 0.00 0.00 0.00 73 1017.7
20260508170020 55 180 11.0 16.0 0.00 0.00 0.00 74 1017.7
20260508165019 54 180 9.0 14.0 0.00 0.00 0.00 74 1017.7
20260508164018 54 180 10.0 15.0 0.00 0.00 0.00 74 1017.6
20260508163019 54 180 9.0 15.0 0.00 0.00 0.00 74 1017.6
20260508162110 54 158 10.0 16.0 0.00 0.00 0.00 74 1017.5
20260508161020 54 180 12.0 17.0 0.00 0.00 0.00 73 1017.2
20260508160039 55 158 10.0 16.0 0.00 0.00 0.00 72 1017.0
20260508155019 55 180 11.0 19.0 0.00 0.00 0.00 71 1016.9
20260508154018 55 180 11.0 18.0 0.00 0.00 0.00 71 1016.6
20260508153019 55 180 10.0 17.0 0.00 0.00 0.00 72 1016.6
20260508152018 54 158 8.0 14.0 0.00 0.00 0.00 73 1016.6
20260508151019 54 158 9.0 16.0 0.00 0.00 0.00 73 1016.4
20260508150019 54 180 10.0 15.0 0.00 0.00 0.00 74 1016.2
20260508145019 54 180 10.0 19.0 0.00 0.00 0.00 76 1016.1
20260508144018 53 180 13.0 20.0 0.00 0.00 0.00 75 1015.8
20260508143019 53 180 11.0 18.0 0.00 0.00 0.00 76 1015.8
20260508142018 53 180 7.0 12.0 0.00 0.00 0.00 78 1015.8
20260508141018 53 180 4.0 8.0 0.00 0.00 0.00 79 1015.7
20260508140047 53 180 6.0 11.0 0.00 0.00 0.00 79 1015.7
20260508135019 53 158 8.0 14.0 0.00 0.00 0.00 79 1015.7
20260508134038 53 135 8.0 14.0 0.00 0.00 0.00 79 1015.7
20260508133111 53 158 8.0 14.0 0.00 0.00 0.00 80 1015.6
20260508132018 53 135 7.0 12.0 0.00 0.00 0.00 80 1015.6
20260508131046 53 135 8.0 15.0 0.00 0.00 0.00 80 1015.7
20260508130019 53 158 6.0 9.0 0.00 0.00 0.00 80 1015.7
20260508125019 53 158 5.0 9.0 0.00 0.00 0.00 81 1015.6
20260508124019 53 158 8.0 13.0 0.00 0.00 0.00 81 1015.6
20260508123018 53 180 8.0 13.0 0.00 0.00 0.00 82 1015.4
20260508122018 53 180 6.0 10.0 0.00 0.00 0.00 82 1015.4
20260508121019 53 180 5.0 10.0 0.00 0.00 0.00 83 1015.5
20260508120018 52 158 4.0 8.0 0.00 0.00 0.00 82 1015.4
20260508115019 52 135 3.0 6.0 0.00 0.00 0.00 83 1015.4
20260508114018 52 113 1.0 5.0 0.00 0.00 0.00 83 1015.2
20260508113019 52 180 1.0 3.0 0.00 0.00 0.00 83 1015.1
20260508112018 53 135 2.0 4.0 0.00 0.00 0.00 83 1015.0
20260508111018 53 135 5.0 10.0 0.00 0.00 0.00 83 1015.0
20260508110039 53 135 8.0 15.0 0.00 0.00 0.00 83 1014.9
20260508105019 52 315 3.0 7.0 0.00 0.00 0.00 83 1014.9
20260508104018 52 45 2.0 4.0 0.00 0.00 0.00 82 1014.7
20260508103019 53 315 2.0 3.0 0.00 0.00 0.00 82 1014.6
20260508102018 53 45 3.0 5.0 0.00 0.00 0.00 82 1014.6
20260508101024 53 315 1.0 3.0 0.00 0.00 0.00 81 1014.6
20260508100018 53 68 1.0 3.0 0.00 0.00 0.00 81 1014.6
20260508095018 53 68 2.0 3.0 0.00 0.00 0.00 81 1014.6
20260508094019 53 68 3.0 5.0 0.00 0.00 0.00 81 1014.7
20260508093019 53 90 3.0 5.0 0.00 0.00 0.00 81 1014.8
20260508092018 53 90 2.0 5.0 0.00 0.00 0.00 81 1014.8
20260508091029 53 90 3.0 6.0 0.00 0.00 0.00 80 1014.7
20260508090017 53 90 4.0 6.0 0.00 0.00 0.00 80 1014.8